WD6FGE Weather Reports


Display with metric or nautical units.
time (UTC)temp
F
wind
direction
speed
MPH
gust
MPH
rain 1hr
in
rain 24hr
in
rain mn
in
humidity
%
barometer
mb
20181113011923 47 246 0.0 2.0 0.00 0.00 0.00 29 1030.5
20181113010929 50 246 0.0 1.0 0.00 0.00 0.00 26 1030.4
20181113005904 51 246 0.0 1.0 0.00 0.00 0.00 26 1030.4
20181113004926 54 177 0.0 0.0 0.00 0.00 0.00 23 1030.3
20181113003938 56 177 0.0 0.0 0.00 0.00 0.00 21 1030.3
20181113002922 58 177 0.0 0.0 0.00 0.00 0.00 20 1030.3
20181113001932 61 177 0.0 1.0 0.00 0.00 0.00 17 1030.3
20181113000907 62 177 0.0 1.0 0.00 0.00 0.00 16 1030.3
20181112235854 64 177 0.0 0.0 0.00 0.00 0.00 15 1030.3
20181112234846 65 177 1.0 3.0 0.00 0.00 0.00 14 1030.2
20181112233840 66 136 2.0 3.0 0.00 0.00 0.00 14 1030.2
20181112232843 66 136 1.0 4.0 0.00 0.00 0.00 13 1030.1
20181112231838 67 92 2.0 4.0 0.00 0.00 0.00 13 1030.1
20181112230827 67 175 1.0 3.0 0.00 0.00 0.00 13 1030.2
20181112225837 67 136 1.0 3.0 0.00 0.00 0.00 13 1030.1
20181112224829 66 156 2.0 4.0 0.00 0.00 0.00 13 1030.1
20181112223802 66 144 1.0 4.0 0.00 0.00 0.00 13 1030.1
20181112222740 65 150 2.0 4.0 0.00 0.00 0.00 14 1030.1
20181112221736 65 148 2.0 5.0 0.00 0.00 0.00 14 1030.1
20181112220710 64 107 2.0 5.0 0.00 0.00 0.00 15 1030.1
20181112215717 63 131 2.0 5.0 0.00 0.00 0.00 15 1030.2
20181112214727 63 141 3.0 6.0 0.00 0.00 0.00 14 1030.5
20181112213738 63 137 1.0 7.0 0.00 0.00 0.00 15 1030.5
20181112212717 63 205 3.0 7.0 0.00 0.00 0.00 15 1030.6
20181112211705 62 36 1.0 5.0 0.00 0.00 0.00 14 1030.8
20181112210637 62 120 2.0 7.0 0.00 0.00 0.00 16 1030.9
20181112205644 61 14 2.0 7.0 0.00 0.00 0.00 17 1031.1
20181112204626 60 82 1.0 4.0 0.00 0.00 0.00 17 1031.4
20181112203613 60 30 0.0 3.0 0.00 0.00 0.00 18 1031.5
20181112202545 59 186 0.0 3.0 0.00 0.00 0.00 18 1031.7
20181112201511 58 312 1.0 3.0 0.00 0.00 0.00 19 1031.7
20181112200525 57 22 2.0 4.0 0.00 0.00 0.00 18 1031.9
20181112195539 57 281 0.0 6.0 0.00 0.00 0.00 19 1032.1
20181112194539 56 346 1.0 6.0 0.00 0.00 0.00 19 1032.4
20181112193503 55 5 1.0 5.0 0.00 0.00 0.00 20 1032.5
20181112192509 54 96 2.0 5.0 0.00 0.00 0.00 20 1032.8
20181112191440 53 322 1.0 4.0 0.00 0.00 0.00 21 1032.9
20181112190439 52 316 1.0 3.0 0.00 0.00 0.00 22 1033.1
20181112185413 51 115 1.0 6.0 0.00 0.00 0.00 23 1033.3
20181112184431 50 105 1.0 6.0 0.00 0.00 0.00 23 1033.5
20181112183358 49 0 2.0 4.0 0.00 0.00 0.00 25 1033.5
20181112182346 47 145 2.0 4.0 0.00 0.00 0.00 26 1033.6
20181112181403 46 128 2.0 4.0 0.00 0.00 0.00 27 1033.8
20181112180358 45 140 2.0 4.0 0.00 0.00 0.00 29 1033.9
20181112175401 44 103 1.0 2.0 0.00 0.00 0.00 33 1034.0
20181112174359 43 115 0.0 2.0 0.00 0.00 0.00 38 1034.1
20181112173416 42 117 0.0 2.0 0.00 0.00 0.00 44 1034.2
20181112172351 39 117 0.0 1.0 0.00 0.00 0.00 52 1034.2
20181112171349 36 117 0.0 1.0 0.00 0.00 0.00 56 1034.2
20181112170343 34 117 0.0 0.0 0.00 0.00 0.00 60 1034.2
20181112165322 31 117 0.0 0.0 0.00 0.00 0.00 66 1034.1
20181112164344 28 117 0.0 1.0 0.00 0.00 0.00 72 1034.1
20181112163357 24 117 0.0 0.0 0.00 0.00 0.00 75 1034.1
20181112162341 21 117 0.0 0.0 0.00 0.00 0.00 76 1033.9
20181112161315 19 117 0.0 0.0 0.00 0.00 0.00 77 1033.9
20181112160334 18 117 0.0 1.0 0.00 0.00 0.00 78 1033.9
20181112155338 18 105 0.0 0.0 0.00 0.00 0.00 78 1033.7
20181112154319 17 105 0.0 0.0 0.00 0.00 0.00 79 1033.7
20181112153251 17 105 0.0 0.0 0.00 0.00 0.00 79 1033.7
20181112152304 17 105 0.0 0.0 0.00 0.00 0.00 78 1033.5
20181112151250 16 105 0.0 0.0 0.00 0.00 0.00 78 1033.5
20181112150309 16 105 0.0 0.0 0.00 0.00 0.00 77 1033.3
20181112145315 16 105 0.0 0.0 0.00 0.00 0.00 77 1033.2
20181112144334 17 105 0.0 0.0 0.00 0.00 0.00 77 1033.1
20181112143356 17 105 0.0 0.0 0.00 0.00 0.00 76 1033.0
20181112142339 17 105 0.0 0.0 0.00 0.00 0.00 77 1033.0
20181112141309 17 105 0.0 0.0 0.00 0.00 0.00 77 1033.0
20181112140239 17 105 0.0 0.0 0.00 0.00 0.00 75 1032.8
20181112135219 17 105 0.0 1.0 0.00 0.00 0.00 74 1032.7
20181112134200 17 105 0.0 0.0 0.00 0.00 0.00 75 1032.6
20181112133152 18 105 0.0 3.0 0.00 0.00 0.00 74 1032.6
20181112132213 18 105 1.0 4.0 0.00 0.00 0.00 75 1032.6
20181112131221 18 105 0.0 4.0 0.00 0.00 0.00 75 1032.6
20181112130220 18 337 0.0 0.0 0.00 0.00 0.00 73 1032.5
20181112125152 18 336 0.0 0.0 0.00 0.00 0.00 73 1032.4
20181112124151 18 336 0.0 0.0 0.00 0.00 0.00 72 1032.4
20181112123122 18 336 0.0 1.0 0.00 0.00 0.00 72 1032.2
20181112122144 18 337 0.0 0.0 0.00 0.00 0.00 72 1032.1
20181112121135 18 337 0.0 0.0 0.00 0.00 0.00 75 1032.1
20181112120145 18 337 0.0 0.0 0.00 0.00 0.00 70 1032.0
20181112115135 18 336 0.0 0.0 0.00 0.00 0.00 70 1031.8
20181112114111 19 336 0.0 0.0 0.00 0.00 0.00 70 1031.8
20181112113116 19 336 0.0 0.0 0.00 0.00 0.00 69 1031.8
20181112112120 19 336 0.0 0.0 0.00 0.00 0.00 69 1031.6
20181112111130 19 336 0.0 0.0 0.00 0.00 0.00 68 1031.7
20181112110142 19 336 0.0 0.0 0.00 0.00 0.00 68 1031.5
20181112105115 20 336 0.0 0.0 0.00 0.00 0.00 68 1031.5
20181112104100 20 336 0.0 0.0 0.00 0.00 0.00 67 1031.6
20181112103029 20 336 0.0 0.0 0.00 0.00 0.00 67 1031.6
20181112102023 20 336 0.0 0.0 0.00 0.00 0.00 68 1031.7
20181112100950 20 336 0.0 0.0 0.00 0.00 0.00 66 1031.7
20181112100006 21 336 0.0 0.0 0.00 0.00 0.00 66 1031.7
20181112095015 21 336 0.0 0.0 0.00 0.00 0.00 65 1031.6
20181112094013 21 336 0.0 0.0 0.00 0.00 0.00 65 1031.5
20181112093013 21 336 0.0 0.0 0.00 0.00 0.00 65 1031.4
20181112091956 22 336 0.0 0.0 0.00 0.00 0.00 64 1031.4
20181112090926 22 336 0.0 0.0 0.00 0.00 0.00 63 1031.4
20181112085943 22 336 0.0 0.0 0.00 0.00 0.00 63 1031.2
20181112084932 23 336 0.0 2.0 0.00 0.00 0.00 62 1031.1
20181112083951 23 5 0.0 2.0 0.00 0.00 0.00 62 1031.1
20181112082939 23 14 0.0 0.0 0.00 0.00 0.00 62 1030.9
20181112081949 23 14 0.0 0.0 0.00 0.00 0.00 61 1030.9
20181112080939 23 14 0.0 1.0 0.00 0.00 0.00 61 1030.8
20181112075927 24 14 0.0 0.0 0.00 0.00 0.00 59 1030.6
20181112074926 24 14 0.0 0.0 0.00 0.00 0.00 59 1030.5
20181112073918 25 14 0.0 0.0 0.00 0.00 0.00 59 1030.5
20181112072906 25 14 0.0 0.0 0.00 0.00 0.00 59 1030.3
20181112071857 26 14 0.0 0.0 0.00 0.00 0.00 58 1030.0
20181112070856 26 14 0.0 0.0 0.00 0.00 0.00 59 1029.9
20181112065835 26 14 0.0 0.0 0.00 0.00 0.00 57 1029.8
20181112064857 27 14 0.0 0.0 0.00 0.00 0.00 56 1029.8
20181112063825 27 14 0.0 1.0 0.00 0.00 0.00 58 1029.7
20181112062834 27 14 0.0 1.0 0.00 0.00 0.00 57 1029.7
20181112061820 27 14 0.0 0.0 0.00 0.00 0.00 56 1029.7
20181112060816 27 14 0.0 1.0 0.00 0.00 0.00 58 1029.7
20181112055746 27 14 0.0 0.0 0.00 0.00 0.00 56 1029.7
20181112054744 28 14 0.0 0.0 0.00 0.00 0.00 55 1029.6
20181112053728 28 14 0.0 2.0 0.00 0.00 0.00 55 1029.6
20181112052750 28 15 0.0 0.0 0.00 0.00 0.00 53 1029.5
20181112051756 29 15 0.0 0.0 0.00 0.00 0.00 53 1029.4
20181112050806 30 14 0.0 0.0 0.00 0.00 0.00 51 1029.3
20181112045820 30 14 0.0 0.0 0.00 0.00 0.00 50 1029.1
20181112044755 30 14 0.0 1.0 0.00 0.00 0.00 52 1028.9
20181112043750 30 128 0.0 1.0 0.00 0.00 0.00 50 1028.8
20181112042725 31 128 0.0 0.0 0.00 0.00 0.00 49 1028.6
20181112041719 32 128 0.0 1.0 0.00 0.00 0.00 47 1028.5
20181112040733 33 128 0.0 1.0 0.00 0.00 0.00 46 1028.4
20181112035710 34 128 0.0 0.0 0.00 0.00 0.00 45 1028.4
20181112034638 34 128 0.0 0.0 0.00 0.00 0.00 45 1028.3
20181112033703 35 128 0.0 0.0 0.00 0.00 0.00 44 1028.2
20181112032656 37 128 0.0 3.0 0.00 0.00 0.00 42 1028.1
20181112031632 38 127 0.0 1.0 0.00 0.00 0.00 41 1028.0
20181112030557 39 128 0.0 0.0 0.00 0.00 0.00 39 1028.1
20181112025532 40 128 0.0 0.0 0.00 0.00 0.00 36 1027.9
20181112024552 40 127 0.0 1.0 0.00 0.00 0.00 33 1027.8
20181112023615 41 127 0.0 2.0 0.00 0.00 0.00 34 1027.6
20181112022636 41 127 0.0 1.0 0.00 0.00 0.00 32 1027.4
20181112021622 44 127 0.0 4.0 0.00 0.00 0.00 30 1027.3
20181112020628 45 340 1.0 2.0 0.00 0.00 0.00 28 1027.0
20181112015603 46 46 0.0 1.0 0.00 0.00 0.00 27 1026.9
20181112014621 49 47 0.0 1.0 0.00 0.00 0.00 24 1026.6
20181112013634 49 302 1.0 4.0 0.00 0.00 0.00 24 1026.4
20181112012659 50 355 1.0 4.0 0.00 0.00 0.00 24 1026.2